RH
31 35 37 38 40 42 40 41 42 43 50 52 50 56 61 62 64 64 67 68 69 77 81 79 79 78 75 81 90 94 91 93 92 86 84 80 68 59 56 55 53 49 46 44 44 43 42 40 40 40 40 41 38 38 41 39 41 43 39 40 43 43 44 45 46 49 53 55 56 58 57 55 51 48 46 43 42 43 43 41 42 43 43 45 46 46
27 29 31 34 40 44 42 42 44 44 47 46 42 47 56 59 60 60 63 65 67 74 80 81 82 79 75 81 92 97 94 92 92 89 85 81 71 63 59 56 54 51 49 49 48 45 43 41 41 41 39 38 35 36 40 38 40 43 39 39 42 43 43 43 44 47 51 54 58 59 57 56 54 49 46 44 42 43 44 43 44 45 45 45 47 48
25 24 24 30 39 43 43 43 45 45 44 45 40 42 51 57 62 63 60 60 63 71 80 82 82 81 78 82 89 94 95 92 91 88 86 81 72 67 63 58 56 54 53 52 50 46 42 42 42 40 37 34 32 33 37 37 39 41 39 37 39 42 42 41 42 45 47 51 57 61 59 57 56 53 48 46 45 44 43 43 45 47 48 48 48 49
24 21 21 26 33 39 42 43 46 46 43 44 40 40 49 54 58 64 61 60 62 69 78 79 82 85 81 83 87 91 94 94 92 89 88 83 74 69 65 59 58 56 53 52 51 46 43 42 40 37 34 32 31 32 33 34 36 40 41 36 35 39 41 39 39 42 44 48 54 58 58 57 56 56 52 48 48 47 44 42 44 46 48 48 48 49
21 18 19 22 28 35 41 44 45 46 44 43 40 41 50 51 50 57 59 60 65 72 75 76 85 88 82 85 89 91 94 94 94 92 89 85 77 72 69 62 59 58 53 49 49 47 43 41 37 34 33 31 31 31 30 31 31 37 42 38 34 36 39 39 38 40 43 46 50 53 56 55 55 58 55 50 48 49 45 43 44 45 46 48 49 49
18 17 17 20 24 28 37 44 45 45 43 42 40 40 47 49 49 55 57 61 72 80 76 73 84 89 82 85 89 89 93 94 94 93 91 87 79 74 73 66 60 59 54 49 46 45 43 40 37 33 32 32 32 30 29 29 28 33 39 40 36 34 37 39 39 40 41 44 46 49 52 53 55 58 57 52 47 46 46 44 43 45 46 46 48 48
17 17 17 18 21 23 29 38 43 42 41 41 39 39 44 46 48 54 59 64 73 79 75 70 79 88 85 83 85 87 90 92 93 93 91 88 80 77 76 68 60 58 56 50 47 46 44 41 37 34 32 31 31 30 29 30 28 29 35 39 38 36 35 38 39 40 40 41 43 45 48 49 52 56 56 53 48 44 45 46 44 45 46 46 47 48
16 16 17 17 19 21 23 30 37 38 37 38 39 41 44 43 45 52 59 66 70 74 77 74 75 85 87 80 80 84 88 91 93 92 91 88 82 79 77 70 61 59 58 53 49 47 45 41 38 35 33 31 32 31 30 30 30 29 32 36 38 36 34 36 38 39 40 39 39 42 45 46 48 51 53 54 52 48 45 43 44 46 49 48 48 48
14 15 17 17 18 20 19 22 30 33 33 35 38 42 43 42 45 51 60 70 73 76 83 80 72 79 85 80 77 81 86 89 92 91 90 88 83 80 78 73 66 62 59 55 49 47 46 43 40 37 36 35 34 32 30 31 31 30 31 33 35 35 34 36 37 38 39 39 38 38 42 45 44 47 50 51 52 53 49 44 43 46 51 51 49 49
14 14 16 17 18 18 16 19 24 27 30 31 34 40 41 42 49 57 67 74 76 78 81 79 72 75 83 82 79 81 82 82 85 88 88 85 81 80 78 76 71 66 63 58 51 47 46 46 44 42 42 40 37 34 34 32 31 30 30 31 31 32 34 36 36 36 38 40 38 37 40 44 43 44 46 47 49 52 53 50 47 46 52 54 51 51
16 15 17 17 17 16 15 17 19 21 24 26 30 37 43 51 60 67 73 76 80 80 74 73 71 71 75 78 76 75 72 70 75 82 86 84 81 81 79 77 74 70 67 63 56 50 47 49 50 49 47 45 42 39 37 35 32 29 29 29 28 29 32 34 34 35 36 39 39 37 38 42 43 43 44 45 48 51 52 53 52 49 52 55 54 52
18 18 19 16 15 16 16 16 16 17 19 24 29 37 51 63 68 71 73 77 85 81 70 69 71 70 70 71 69 67 63 63 67 72 79 83 82 80 78 77 74 72 72 68 62 56 53 55 56 54 51 50 47 44 41 39 35 32 30 27 26 27 29 31 32 33 35 37 39 39 39 40 41 42 42 43 45 49 50 52 52 51 52 55 55 53
19 20 20 17 15 16 16 16 16 16 19 24 31 42 58 69 74 78 79 81 81 74 66 66 69 72 70 65 64 65 62 63 66 67 72 79 81 80 79 77 75 75 75 72 67 64 61 60 60 59 56 54 52 48 44 41 39 36 33 29 28 27 26 28 28 30 33 35 37 40 42 43 43 42 41 40 41 45 48 50 51 51 51 53 55 52
21 22 21 18 16 16 16 16 16 18 20 25 31 41 57 68 76 83 84 79 73 66 63 64 68 73 68 61 62 63 61 62 65 66 70 74 78 78 78 79 79 79 79 77 74 72 68 65 63 62 60 58 56 51 46 44 41 39 35 32 31 29 27 27 27 28 31 32 35 39 43 45 46 44 42 40 39 41 45 48 50 51 51 51 53 52
26 26 23 19 17 16 15 14 16 19 22 28 31 36 48 56 62 69 73 72 68 65 65 64 68 72 66 62 63 61 60 61 63 64 68 73 77 78 80 82 84 84 84 84 82 79 75 70 67 65 63 61 59 56 51 47 45 42 38 35 32 32 30 28 27 27 27 29 31 36 41 44 46 46 44 41 40 40 42 45 48 50 52 51 51 51
29 28 24 19 17 16 15 15 17 19 24 33 35 37 43 44 43 49 57 60 61 67 72 70 69 70 66 64 63 61 60 61 63 62 65 71 76 79 81 84 86 88 88 88 86 82 77 72 71 68 67 65 64 62 57 52 49 48 46 42 36 33 30 29 28 27 26 25 27 31 36 40 42 44 43 42 41 41 42 44 46 48 50 51 49 50
29 28 25 20 18 17 15 17 18 18 26 36 37 37 40 38 38 43 47 53 62 71 76 74 73 71 67 66 65 63 62 63 65 63 63 68 73 78 83 86 90 92 92 89 86 82 75 71 71 71 70 70 68 66 63 58 55 54 54 51 46 39 34 30 29 29 27 25 24 26 30 33 36 38 40 40 41 41 42 44 46 47 47 48 49 49
31 30 27 22 20 18 17 18 18 19 26 35 38 38 38 38 40 43 46 57 71 79 78 76 76 74 71 70 68 65 64 64 65 63 63 67 72 77 81 84 88 91 90 89 85 82 76 71 71 72 73 73 70 68 67 65 65 63 61 59 56 51 44 37 32 29 27 25 23 24 25 28 30 32 35 37 38 41 43 44 46 45 45 46 47 47
33 33 30 25 23 22 20 20 21 20 23 32 38 38 39 41 41 42 45 56 71 81 80 77 76 74 73 71 68 66 66 66 66 64 64 67 70 73 75 77 84 87 87 87 84 82 78 74 74 75 76 76 73 72 71 70 70 70 70 69 66 62 56 49 43 36 31 27 25 24 24 26 27 28 30 33 36 40 42 43 44 44 43 44 45 46
36 35 33 28 25 24 22 22 24 24 22 29 38 38 40 43 44 43 44 51 64 75 77 75 75 74 72 70 69 68 67 67 70 70 68 67 68 70 71 74 80 84 84 85 85 83 81 78 78 78 78 77 77 77 76 74 73 73 76 78 76 72 65 58 53 48 41 36 31 28 27 27 26 26 27 29 32 35 37 39 41 43 42 42 43 44
41 38 35 33 30 27 26 24 25 26 25 28 35 40 41 40 41 43 43 49 61 70 72 72 73 72 69 69 69 68 68 69 71 71 69 68 67 69 70 72 75 78 80 84 84 84 84 83 81 80 80 79 80 81 80 79 77 76 77 80 82 82 74 65 60 58 55 49 43 36 30 28 28 27 27 28 30 31 33 35 37 40 41 41 41 42
45 43 39 38 34 31 29 26 25 27 28 30 32 37 40 40 41 44 45 49 58 63 63 66 70 68 66 68 68 67 67 68 69 70 70 69 68 69 69 70 72 74 76 78 79 81 84 86 85 83 81 80 81 84 83 80 78 76 77 78 79 79 77 72 70 70 68 63 57 48 37 30 28 28 28 29 31 32 33 34 34 36 39 39 39 41
47 47 46 44 40 37 33 29 28 29 30 30 31 32 37 40 42 45 46 51 59 61 57 61 68 66 61 64 66 65 65 65 65 67 69 69 69 69 69 70 71 72 73 74 75 77 81 84 84 83 83 82 81 83 84 82 79 77 78 79 77 76 76 76 77 79 77 72 68 60 48 37 30 29 29 30 31 31 33 33 33 34 36 36 37 41
50 50 50 51 49 45 39 34 31 31 32 32 31 32 34 36 39 43 46 50 59 62 59 62 70 66 59 60 61 60 62 63 62 63 67 70 70 70 70 71 73 74 73 72 74 75 76 78 80 80 82 83 82 83 82 80 79 80 80 80 81 82 81 79 80 82 80 76 75 70 60 47 37 32 29 29 30 30 31 32 32 33 33 34 36 40
51 52 53 56 54 48 45 41 34 33 36 36 34 32 33 36 39 41 45 50 58 62 58 57 65 66 60 58 57 56 59 60 59 59 63 69 71 70 70 70 73 75 73 71 73 75 75 76 77 76 78 80 82 82 80 78 79 82 82 82 83 85 85 83 83 83 82 80 79 75 68 59 50 42 36 31 30 30 30 31 32 32 33 33 36 40
52 54 55 60 60 53 50 47 40 39 41 39 34 33 34 37 38 40 46 51 55 60 57 53 57 62 61 59 57 56 56 57 57 56 60 67 69 68 68 68 67 69 69 68 70 73 75 76 76 74 74 77 82 82 78 77 80 82 84 86 87 86 86 87 86 85 84 82 80 78 75 68 61 56 49 43 39 36 33 32 31 31 31 34 37 41
57 57 56 59 59 55 52 50 45 44 43 39 35 34 35 37 40 44 49 50 51 58 62 57 53 57 60 60 59 57 56 56 57 57 60 65 65 64 67 68 65 64 65 65 67 70 72 74 75 75 74 77 82 83 79 77 80 81 81 84 85 84 85 87 87 87 87 86 83 82 79 75 70 65 62 61 58 52 44 39 35 32 32 34 37 41
60 59 57 56 52 49 48 47 42 41 42 41 37 34 33 34 39 46 48 45 46 55 62 60 55 56 57 58 59 58 57 56 58 59 62 63 63 63 65 66 65 64 63 63 64 67 69 70 71 73 74 74 79 83 80 78 79 80 80 80 81 82 83 84 87 88 88 88 88 86 82 79 75 72 71 72 73 69 61 54 48 42 38 37 37 39
59 61 60 56 51 47 44 42 39 37 40 42 40 36 33 32 38 45 46 47 47 49 54 58 59 59 58 57 59 59 59 59 59 61 65 66 64 65 67 67 65 64 63 62 63 65 67 69 69 70 72 71 75 80 80 79 79 80 80 81 81 81 81 82 85 86 86 85 87 87 86 83 79 76 76 76 78 77 74 70 64 57 51 46 42 40
53 61 64 60 54 50 46 44 42 39 39 43 44 41 37 37 41 44 47 52 52 48 50 55 60 63 61 57 59 62 63 63 62 65 69 70 69 71 72 70 66 65 64 62 64 65 66 68 69 70 71 70 71 73 74 75 77 78 81 82 80 80 81 81 83 84 81 78 79 82 85 86 83 80 78 78 78 78 78 77 73 66 62 58 54 50
46 55 65 64 57 53 50 47 45 43 41 43 45 44 42 41 44 48 50 52 52 52 53 56 60 64 64 60 60 63 66 66 64 67 70 70 70 72 72 69 66 65 64 63 65 66 66 68 69 70 71 70 66 66 70 74 75 76 80 81 78 76 77 78 78 80 80 77 77 80 83 86 86 83 81 79 78 78 79 79 75 71 68 65 63 62
45 52 64 66 59 55 53 50 50 48 44 42 42 44 47 46 44 47 51 51 51 52 55 59 60 62 64 65 64 64 67 69 67 68 70 68 66 66 65 64 62 61 61 64 67 66 65 68 69 69 71 72 69 68 69 73 76 77 79 80 77 74 76 77 75 78 82 82 83 83 84 86 88 87 85 83 81 81 80 79 75 72 70 69 69 68
48 52 60 65 63 59 55 50 50 51 49 48 47 45 47 49 48 49 53 54 50 48 50 55 57 58 61 65 66 66 67 70 69 69 69 68 63 59 58 57 57 57 60 65 67 65 63 64 66 67 68 69 70 70 70 72 75 76 75 76 75 74 77 78 77 78 81 81 81 83 85 87 89 89 89 87 85 83 81 78 74 71 71 71 71 70
51 52 53 59 64 65 60 50 47 53 56 57 54 48 46 52 54 55 57 59 57 51 49 51 52 54 58 60 63 66 66 67 69 68 68 66 61 57 55 54 56 60 63 66 66 65 63 62 62 62 62 64 66 71 75 75 75 74 73 73 75 77 78 80 81 80 79 78 78 80 81 83 85 87 89 88 85 84 81 78 74 73 73 73 72 71
48 50 50 54 59 65 69 60 53 57 60 57 55 50 46 51 57 57 56 58 60 59 55 54 53 51 51 52 56 61 64 65 66 66 65 61 57 55 55 55 57 61 64 67 66 65 64 61 60 61 63 67 69 71 74 74 72 72 73 74 76 77 79 81 83 81 77 75 78 78 78 79 79 79 83 85 85 84 82 80 78 75 75 75 75 73
43 47 51 53 51 56 68 70 65 62 59 56 56 53 49 51 57 62 64 61 61 62 60 58 57 53 51 50 52 58 63 63 63 63 61 58 53 53 55 57 58 61 63 64 65 65 62 60 60 63 66 71 72 71 72 71 67 66 68 71 74 77 79 81 82 80 75 72 73 74 75 77 77 75 76 79 80 80 79 81 81 78 78 80 80 77
43 46 48 50 49 51 60 66 66 64 60 58 58 56 52 51 51 61 72 70 66 67 63 58 57 57 55 53 53 58 61 62 63 62 60 57 55 55 56 57 59 62 64 63 63 63 61 61 62 64 65 67 69 70 70 69 67 64 63 64 67 71 76 80 78 75 73 70 69 69 70 71 73 74 75 75 75 75 75 76 77 77 79 84 84 82
40 42 43 46 50 54 58 60 61 64 64 63 60 55 52 49 47 53 65 69 67 68 67 62 59 58 57 56 54 55 56 60 62 60 56 56 56 56 56 55 56 58 60 61 62 62 62 62 64 65 65 65 66 67 67 67 66 64 62 63 63 64 68 71 71 69 69 69 67 66 64 64 63 65 69 70 70 71 70 69 70 72 76 82 84 84
37 40 43 46 48 51 54 54 54 57 61 63 63 57 51 51 50 50 59 64 61 59 62 66 65 61 58 57 55 53 54 59 62 57 53 53 53 52 53 53 51 50 52 56 61 62 63 63 63 64 65 64 65 66 66 66 66 63 61 61 62 62 62 62 61 61 63 64 62 60 57 54 52 52 54 56 57 59 60 61 61 64 69 74 77 79
39 38 38 40 45 49 49 48 49 53 57 60 61 58 53 52 52 52 59 63 57 53 56 64 68 67 65 62 60 59 59 60 61 58 54 52 51 50 51 50 47 46 47 53 58 61 64 64 62 62 62 62 62 64 63 63 63 61 58 56 56 56 55 55 55 55 57 57 55 52 49 46 44 42 42 42 42 45 47 49 51 53 58 64 68 70
39 40 37 36 39 42 42 39 40 46 51 53 54 53 51 50 48 50 56 58 55 56 58 60 64 67 66 63 64 65 61 57 59 61 60 58 55 53 52 51 50 49 51 54 59 63 64 64 62 61 59 58 59 60 60 60 59 58 56 54 52 51 48 48 48 48 49 48 46 45 44 42 41 40 38 38 37 37 38 40 42 44 48 53 58 62
33 35 37 36 34 36 38 36 35 41 46 46 45 46 46 46 46 50 52 49 49 54 56 56 55 56 55 58 62 64 63 62 66 69 68 65 63 60 59 55 52 52 55 58 62 65 64 62 60 57 56 55 55 54 55 55 53 53 52 51 51 49 47 46 45 44 42 41 41 41 41 40 41 41 40 40 39 38 37 37 39 41 43 46 49 52
29 29 32 34 33 35 39 37 35 41 45 44 43 43 44 45 48 50 49 45 45 50 54 55 54 50 50 53 56 58 60 65 70 70 67 63 61 59 61 60 54 51 56 61 64 65 62 59 56 55 53 52 51 50 50 49 47 45 44 45 46 45 43 42 42 41 39 37 37 37 36 36 38 38 38 38 37 37 36 36 37 38 39 40 41 44
32 30 32 35 35 35 38 38 38 40 42 43 43 43 45 46 45 46 47 46 46 48 52 56 57 54 53 54 56 56 55 55 58 61 61 58 53 52 58 64 63 57 58 62 63 63 61 58 55 53 52 51 49 46 46 46 45 44 42 42 42 41 39 37 36 35 34 32 31 30 29 30 31 31 32 33 34 35 35 35 35 35 34 35 36 38
36 34 34 37 36 35 37 39 38 35 34 36 38 39 41 42 42 42 44 45 46 48 51 57 59 59 57 58 59 60 59 55 52 55 58 59 56 53 54 61 63 61 60 61 61 60 59 57 54 52 51 52 51 49 45 43 44 45 44 42 41 38 37 35 33 31 28 27 26 26 25 26 27 29 32 33 33 34 34 33 33 33 33 34 35 37
39 38 37 38 38 38 38 37 37 35 34 33 32 33 34 36 38 39 40 42 44 48 52 56 60 61 61 61 60 62 66 66 60 56 56 57 57 56 56 59 61 62 62 63 59 55 53 51 49 47 47 49 51 51 49 47 46 46 45 43 42 40 38 36 34 32 29 28 27 26 27 27 28 29 32 34 34 34 33 32 30 31 31 32 34 36
42 40 41 42 41 40 41 41 41 40 39 36 33 32 31 31 32 34 35 38 42 47 52 56 58 61 64 65 63 61 65 70 72 69 64 58 56 56 57 60 63 64 65 66 62 57 53 48 44 42 41 43 47 50 51 50 48 47 47 46 45 43 41 39 38 36 34 32 30 30 29 30 30 29 29 31 31 32 33 32 31 30 30 30 31 32
43 41 44 46 45 43 44 45 44 43 43 42 40 38 35 32 32 32 32 35 38 44 51 54 55 56 59 61 62 60 60 65 73 76 72 65 61 59 58 59 62 64 66 66 63 58 52 46 42 39 38 39 42 48 52 54 53 53 52 50 50 48 47 45 43 40 39 38 36 35 33 32 32 30 29 29 29 29 30 31 30 29 27 27 27 27
42 41 44 45 45 44 44 43 43 44 45 45 44 44 42 40 38 37 35 35 36 39 44 48 50 52 53 55 57 58 58 61 66 71 73 71 68 64 60 59 60 61 64 64 60 55 50 46 42 41 39 40 41 44 47 50 52 54 55 54 53 52 50 48 46 43 41 40 38 37 36 34 33 32 30 29 29 29 29 28 28 27 25 25 24 24
41 43 45 43 43 44 42 39 39 42 45 45 45 45 45 44 43 43 42 40 39 39 39 41 43 46 48 50 52 54 56 59 62 66 69 70 69 67 65 64 62 61 60 58 55 52 51 50 47 43 41 41 42 43 43 43 44 46 48 50 51 50 49 48 46 44 42 39 37 36 35 33 32 31 29 28 27 26 26 25 24 24 23 22 21 22
38 41 43 43 43 42 39 37 37 39 42 44 44 46 46 45 45 46 46 46 45 45 45 43 42 43 44 46 48 50 52 55 58 63 66 67 68 69 70 68 67 64 61 57 54 53 53 52 49 45 42 41 41 42 42 42 41 41 41 42 44 46 47 47 46 44 42 39 37 35 34 32 31 29 28 26 25 23 22 21 21 21 21 20 20 19